Tracking 35274 objects as of 10-Sep-2026
HD Live streaming from Space Station
objects crossing your sky now

STARLINK-30578

Track STARLINK-30578 now!
10-day predictions
STARLINK-30578 is classified as:


NORAD ID: 58093
Int'l Code: 2023-160U
Launch date: October 18, 2023
Source: United States (US)
Launch site: AIR FORCE EASTERN TEST RANGE (AFETR)
Your satellite tracking list
Your tracking list is empty




NASA's NSSDC Master Catalog

Two Line Element Set (TLE):
1 58093U 23160U   26252.92421167 -.00000425  00000-0 -59374-5 0  9992
2 58093  43.0043 117.2859 0001167 285.7339  74.3384 15.27572865161124
Source of the keplerian elements: AFSPC